CW4114 Weather Reports


Display with metric or nautical units.
time (UTC)temp
F
wind
direction
speed
MPH
gust
MPH
rain 1hr
in
rain 24hr
in
rain mn
in
humidity
%
barometer
mb
20200808144202 77 255 6.0 12.0 0.00 0.00 0.00 60 1019.2
20200808143703 77 271 5.0 12.0 0.00 0.00 0.00 62 1019.2
20200808143204 77 281 5.0 12.0 0.00 0.00 0.00 62 1019.4
20200808142702 76 259 5.0 12.0 0.00 0.00 0.00 64 1019.3
20200808142202 76 259 6.0 11.0 0.00 0.00 0.00 65 1019.2
20200808141702 76 261 4.0 10.0 0.00 0.00 0.00 65 1019.2
20200808141203 75 193 4.0 10.0 0.00 0.00 0.00 68 1019.3
20200808140701 74 197 4.0 10.0 0.00 0.00 0.00 67 1019.2
20200808140202 74 219 4.0 9.0 0.00 0.00 0.00 67 1019.2
20200808135702 74 262 4.0 9.0 0.00 0.00 0.00 68 1019.1
20200808135204 73 268 5.0 9.0 0.00 0.00 0.00 67 1019.1
20200808134702 73 172 3.0 10.0 0.00 0.00 0.00 68 1019.1
20200808134203 73 264 5.0 10.0 0.00 0.00 0.00 68 1019.1
20200808133701 73 241 4.0 9.0 0.00 0.00 0.00 69 1019.2
20200808133202 72 199 4.0 9.0 0.00 0.00 0.00 69 1019.2
20200808132701 72 183 4.0 7.0 0.00 0.00 0.00 69 1019.3
20200808132201 72 213 4.0 7.0 0.00 0.00 0.00 70 1019.2
20200808131702 72 203 3.0 7.0 0.00 0.00 0.00 70 1019.3
20200808131201 72 189 4.0 7.0 0.00 0.00 0.00 69 1019.3
20200808130701 71 217 2.0 7.0 0.00 0.00 0.00 70 1019.4
20200808130202 71 230 3.0 7.0 0.00 0.00 0.00 71 1019.4
20200808125700 71 262 3.0 7.0 0.00 0.00 0.00 72 1019.5
20200808125202 70 224 3.0 7.0 0.00 0.00 0.00 73 1019.6
20200808124701 69 192 3.0 10.0 0.00 0.00 0.00 73 1019.6
20200808124159 69 255 4.0 10.0 0.00 0.00 0.00 72 1019.5
20200808123700 69 213 3.0 9.0 0.00 0.00 0.00 74 1019.6
20200808123159 68 251 4.0 7.0 0.00 0.00 0.00 74 1019.5
20200808122659 68 274 3.0 7.0 0.00 0.00 0.00 76 1019.6
20200808122159 67 237 3.0 7.0 0.00 0.00 0.00 77 1019.6
20200808121659 67 213 1.0 5.0 0.00 0.00 0.00 78 1019.6
20200808121159 66 197 3.0 5.0 0.00 0.00 0.00 80 1019.6
20200808120700 65 204 2.0 6.0 0.00 0.00 0.00 81 1019.6
20200808120201 65 183 3.0 6.0 0.00 0.00 0.00 81 1019.5
20200808115659 64 169 2.0 5.0 0.00 0.00 0.00 82 1019.5
20200808115159 64 179 2.0 5.0 0.00 0.00 0.00 84 1019.5
20200808114657 63 220 3.0 5.0 0.00 0.00 0.00 85 1019.5
20200808114159 62 226 2.0 5.0 0.00 0.00 0.00 85 1019.3
20200808113658 62 216 3.0 5.0 0.00 0.00 0.00 86 1019.4
20200808113157 61 212 3.0 5.0 0.00 0.00 0.00 87 1019.5
20200808112659 61 207 2.0 4.0 0.00 0.00 0.00 87 1019.4
20200808112157 60 217 2.0 4.0 0.00 0.00 0.00 87 1019.5
20200808111659 60 212 2.0 5.0 0.00 0.00 0.00 88 1019.5
20200808111157 60 214 3.0 5.0 0.00 0.00 0.00 88 1019.6
20200808110657 60 243 2.0 5.0 0.00 0.00 0.00 88 1019.5
20200808110158 60 212 2.0 5.0 0.00 0.00 0.00 89 1019.5
20200808105656 59 251 3.0 5.0 0.00 0.00 0.00 89 1019.4
20200808105156 59 252 3.0 5.0 0.00 0.00 0.00 90 1019.4
20200808104657 59 240 3.0 4.0 0.00 0.00 0.00 90 1019.4
20200808104156 59 210 2.0 4.0 0.00 0.00 0.00 90 1019.3
20200808103657 59 236 2.0 5.0 0.00 0.00 0.00 91 1019.4
20200808103156 59 220 2.0 5.0 0.00 0.00 0.00 91 1019.4
20200808102657 59 240 2.0 5.0 0.00 0.00 0.00 91 1019.5
20200808102158 59 189 2.0 5.0 0.00 0.00 0.00 92 1019.6
20200808101657 59 207 2.0 4.0 0.00 0.00 0.00 92 1019.6
20200808101156 59 223 2.0 4.0 0.00 0.00 0.00 92 1019.5
20200808100656 59 254 2.0 4.0 0.00 0.00 0.00 92 1019.5
20200808100156 59 236 3.0 5.0 0.00 0.00 0.00 92 1019.4
20200808095655 59 257 3.0 5.0 0.00 0.00 0.00 93 1019.4
20200808095155 59 240 2.0 5.0 0.00 0.00 0.00 93 1019.3
20200808094655 59 245 3.0 5.0 0.00 0.00 0.00 93 1019.2
20200808094155 59 244 3.0 5.0 0.00 0.00 0.00 93 1019.2
20200808093655 59 240 3.0 6.0 0.00 0.00 0.00 93 1019.3
20200808093153 59 245 3.0 6.0 0.00 0.00 0.00 93 1019.1
20200808092653 59 257 3.0 4.0 0.00 0.00 0.00 93 1019.1
20200808092152 60 245 2.0 5.0 0.00 0.00 0.00 93 1019.1
20200808091647 60 231 2.0 5.0 0.00 0.00 0.00 93 1019.0
20200808091145 60 258 2.0 5.0 0.00 0.00 0.00 93 1019.0
20200808090645 60 259 2.0 5.0 0.00 0.00 0.00 93 1019.0
20200808090146 60 233 2.0 5.0 0.00 0.00 0.00 93 1019.0
20200808085645 60 223 2.0 6.0 0.00 0.00 0.00 93 1019.2
20200808085145 60 210 2.0 6.0 0.00 0.00 0.00 93 1019.2
20200808084641 60 243 2.0 5.0 0.00 0.00 0.00 93 1019.3
20200808084142 60 228 3.0 5.0 0.00 0.00 0.00 92 1019.3
20200808083641 60 236 2.0 6.0 0.00 0.00 0.00 92 1019.4
20200808083142 60 265 2.0 6.0 0.00 0.00 0.00 92 1019.5
20200808082638 60 237 2.0 6.0 0.00 0.00 0.00 92 1019.6
20200808082139 61 251 3.0 6.0 0.00 0.00 0.00 92 1019.6
20200808081636 61 221 2.0 5.0 0.00 0.00 0.00 92 1019.4
20200808081136 61 247 2.0 5.0 0.00 0.00 0.00 92 1019.4
20200808080638 61 245 2.0 6.0 0.00 0.00 0.00 91 1019.4
20200808080136 61 230 2.0 6.0 0.00 0.00 0.00 91 1019.3
20200808075636 61 213 2.0 6.0 0.00 0.00 0.00 91 1019.3
20200808075138 62 224 4.0 6.0 0.00 0.00 0.00 91 1019.5
20200808074635 62 244 3.0 5.0 0.00 0.00 0.00 90 1019.5
20200808074138 62 227 2.0 5.0 0.00 0.00 0.00 90 1019.5
20200808073637 62 193 1.0 4.0 0.00 0.00 0.00 90 1019.5
20200808073136 62 231 2.0 5.0 0.00 0.00 0.00 90 1019.5
20200808072642 62 219 3.0 5.0 0.00 0.00 0.00 89 1019.5
20200808072137 62 231 1.0 3.0 0.00 0.00 0.00 89 1019.6
20200808071638 63 221 1.0 2.0 0.00 0.00 0.00 88 1019.6
20200808071131 63 223 0.0 1.0 0.00 0.00 0.00 88 1019.6
20200808070635 63 223 0.0 2.0 0.00 0.00 0.00 88 1019.6
20200808070129 63 223 0.0 4.0 0.00 0.00 0.00 87 1019.6
20200808065630 63 212 1.0 4.0 0.00 0.00 0.00 87 1019.7
20200808065130 64 241 1.0 2.0 0.00 0.00 0.00 87 1019.6
20200808064631 64 233 1.0 1.0 0.00 0.00 0.00 86 1019.6
20200808064129 64 236 0.0 3.0 0.00 0.00 0.00 86 1019.5
20200808063630 64 244 1.0 3.0 0.00 0.00 0.00 86 1019.5
20200808063129 65 213 1.0 3.0 0.00 0.00 0.00 85 1019.5
20200808062627 65 193 0.0 3.0 0.00 0.00 0.00 85 1019.5
20200808062126 65 254 1.0 4.0 0.00 0.00 0.00 85 1019.5
20200808061627 65 199 1.0 4.0 0.00 0.00 0.00 84 1019.5
20200808061127 65 209 2.0 5.0 0.00 0.00 0.00 84 1019.5
20200808060631 65 209 2.0 6.0 0.00 0.00 0.00 84 1019.5
20200808060128 65 195 2.0 6.0 0.00 0.00 0.00 84 1019.5
20200808055624 65 196 2.0 5.0 0.00 0.00 0.00 84 1019.6
20200808055125 65 283 2.0 6.0 0.00 0.00 0.00 83 1019.6
20200808054623 65 259 2.0 6.0 0.00 0.00 0.00 84 1019.5
20200808054123 65 216 2.0 7.0 0.00 0.00 0.00 84 1019.5
20200808053623 65 244 2.0 7.0 0.00 0.00 0.00 84 1019.5
20200808053124 65 199 2.0 4.0 0.00 0.00 0.00 84 1019.6
20200808052618 65 223 2.0 5.0 0.00 0.00 0.00 84 1019.6
20200808052118 65 204 2.0 5.0 0.00 0.00 0.00 84 1019.5
20200808051618 65 200 2.0 5.0 0.00 0.00 0.00 84 1019.6
20200808051117 65 216 2.0 3.0 0.00 0.00 0.00 83 1019.7
20200808050654 65 223 1.0 3.0 0.00 0.00 0.00 83 1019.7
20200808050122 66 236 1.0 3.0 0.00 0.00 0.00 82 1019.7
20200808045609 66 214 2.0 4.0 0.00 0.00 0.00 82 1019.7
20200808045108 66 257 2.0 5.0 0.00 0.00 0.00 81 1019.6
20200808044604 66 245 2.0 5.0 0.00 0.00 0.00 81 1019.6
20200808044104 66 245 2.0 5.0 0.00 0.00 0.00 81 1019.6
20200808043604 67 216 2.0 4.0 0.00 0.00 0.00 80 1019.6
20200808043106 67 216 2.0 3.0 0.00 0.00 0.00 80 1019.6
20200808042604 67 228 1.0 6.0 0.00 0.00 0.00 79 1019.6
20200808042103 67 209 2.0 6.0 0.00 0.00 0.00 78 1019.5
20200808041601 67 192 2.0 5.0 0.00 0.00 0.00 78 1019.5
20200808041105 67 247 3.0 10.0 0.00 0.00 0.00 77 1019.6
20200808040603 67 226 4.0 10.0 0.00 0.00 0.00 77 1019.5
20200808040102 67 247 4.0 9.0 0.00 0.00 0.00 77 1019.4
20200808035603 67 221 3.0 9.0 0.00 0.00 0.00 78 1019.4
20200808035101 67 221 3.0 7.0 0.00 0.00 0.00 77 1019.4
20200808034603 67 220 3.0 7.0 0.00 0.00 0.00 77 1019.5
20200808034103 67 221 3.0 5.0 0.00 0.00 0.00 77 1019.5
20200808033602 68 195 2.0 5.0 0.00 0.00 0.00 77 1019.4
20200808033101 68 257 3.0 6.0 0.00 0.00 0.00 77 1019.6
20200808032603 68 227 4.0 6.0 0.00 0.00 0.00 76 1019.5
20200808032103 68 220 2.0 6.0 0.00 0.00 0.00 75 1019.6
20200808031603 68 196 2.0 5.0 0.00 0.00 0.00 75 1019.5
20200808031103 68 223 3.0 5.0 0.00 0.00 0.00 75 1019.6
20200808030602 68 197 3.0 5.0 0.00 0.00 0.00 75 1019.6
20200808030102 68 183 1.0 4.0 0.00 0.00 0.00 75 1019.5
20200808025603 68 206 1.0 4.0 0.00 0.00 0.00 75 1019.5
20200808025102 68 206 1.0 4.0 0.00 0.00 0.00 75 1019.6
20200808024603 68 216 2.0 4.0 0.00 0.00 0.00 75 1019.6
20200808024103 68 199 2.0 4.0 0.00 0.00 0.00 75 1019.7
20200808023601 68 189 2.0 4.0 0.00 0.00 0.00 74 1019.8
20200808023106 68 216 2.0 5.0 0.00 0.00 0.00 73 1019.8
20200808022606 68 213 2.0 5.0 0.00 0.00 0.00 72 1019.7
20200808022102 69 162 3.0 5.0 0.00 0.00 0.00 71 1019.8
20200808021606 69 210 2.0 4.0 0.00 0.00 0.00 70 1019.9
20200808021104 69 203 1.0 4.0 0.00 0.00 0.00 70 1019.9
20200808020611 69 204 2.0 4.0 0.00 0.00 0.00 69 1019.9
20200808020104 69 221 2.0 4.0 0.00 0.00 0.00 68 1019.8
20200808015603 69 233 0.0 4.0 0.00 0.00 0.00 68 1019.8
20200808015102 69 203 1.0 4.0 0.00 0.00 0.00 68 1019.7
20200808014604 69 199 1.0 4.0 0.00 0.00 0.00 67 1019.7
20200808014104 70 192 2.0 5.0 0.00 0.00 0.00 67 1019.7
20200808013602 70 220 1.0 5.0 0.00 0.00 0.00 68 1019.7
20200808013103 70 202 1.0 5.0 0.00 0.00 0.00 67 1019.6
20200808012603 70 204 1.0 4.0 0.00 0.00 0.00 66 1019.6
20200808012102 71 231 1.0 4.0 0.00 0.00 0.00 66 1019.5
20200808011604 71 197 2.0 4.0 0.00 0.00 0.00 65 1019.6
20200808011104 71 202 2.0 5.0 0.00 0.00 0.00 64 1019.4
20200808010602 71 216 2.0 5.0 0.00 0.00 0.00 64 1019.4
20200808010103 72 199 1.0 4.0 0.00 0.00 0.00 64 1019.4
20200808005601 72 224 1.0 5.0 0.00 0.00 0.00 63 1019.5
20200808005102 72 188 1.0 5.0 0.00 0.00 0.00 62 1019.3
20200808004602 72 189 2.0 4.0 0.00 0.00 0.00 62 1019.4
20200808004102 72 166 2.0 7.0 0.00 0.00 0.00 62 1019.4
20200808003602 72 173 1.0 7.0 0.00 0.00 0.00 62 1019.4
20200808003102 72 165 0.0 4.0 0.00 0.00 0.00 65 1019.4
20200808002602 72 114 1.0 4.0 0.00 0.00 0.00 66 1019.4
20200808002121 72 127 1.0 4.0 0.00 0.00 0.00 67 1019.3
20200808001603 72 123 1.0 5.0 0.00 0.00 0.00 69 1019.4
20200808001106 73 123 3.0 6.0 0.00 0.00 0.00 69 1019.4
20200808000602 73 97 3.0 6.0 0.00 0.00 0.00 70 1019.4
20200808000110 73 111 3.0 7.0 0.00 0.00 0.00 70 1019.4
20200807235602 73 104 4.0 7.0 0.00 0.00 0.00 69 1019.3
20200807235101 73 106 4.0 7.0 0.00 0.00 0.00 68 1019.3
20200807234611 73 92 5.0 9.0 0.00 0.00 0.00 70 1019.3
20200807234102 73 120 5.0 9.0 0.00 0.00 0.00 72 1019.4
20200807233602 73 87 4.0 7.0 0.00 0.00 0.00 74 1019.4
20200807233104 73 72 3.0 7.0 0.00 0.00 0.00 74 1019.4
20200807232604 73 85 4.0 7.0 0.00 0.00 0.00 74 1019.5
20200807232102 73 83 4.0 7.0 0.00 0.00 0.00 72 1019.4
20200807231607 74 78 5.0 7.0 0.00 0.00 0.00 71 1019.5
20200807231110 74 92 3.0 9.0 0.00 0.00 0.00 69 1019.6
20200807230600 74 102 4.0 9.0 0.00 0.00 0.00 68 1019.5
20200807230059 75 79 4.0 9.0 0.00 0.00 0.00 67 1019.5
20200807225558 75 69 5.0 9.0 0.00 0.00 0.00 66 1019.6
20200807225059 75 92 5.0 6.0 0.00 0.00 0.00 65 1019.7
20200807224558 76 97 3.0 9.0 0.00 0.00 0.00 64 1019.7
20200807224056 76 93 3.0 9.0 0.00 0.00 0.00 63 1019.7
20200807223557 76 110 3.0 6.0 0.00 0.00 0.00 63 1019.7
20200807223055 77 113 3.0 6.0 0.00 0.00 0.00 62 1019.7
20200807222552 77 96 4.0 6.0 0.00 0.00 0.00 63 1019.6
20200807222051 77 82 3.0 6.0 0.00 0.00 0.00 62 1019.6
20200807221552 77 79 4.0 7.0 0.00 0.00 0.00 61 1019.6
20200807221049 76 93 2.0 7.0 0.00 0.00 0.00 65 1019.7
20200807220548 76 80 4.0 7.0 0.00 0.00 0.00 68 1019.6
20200807220043 75 118 4.0 10.0 0.00 0.00 0.00 69 1019.6
20200807215544 75 95 5.0 11.0 0.00 0.00 0.00 69 1019.7
20200807215044 75 69 7.0 12.0 0.00 0.00 0.00 69 1019.6
20200807214542 75 113 6.0 12.0 0.00 0.00 0.00 68 1019.6
20200807214042 75 87 6.0 11.0 0.00 0.00 0.00 66 1019.8
20200807213542 76 110 6.0 10.0 0.00 0.00 0.00 62 1019.7
20200807213043 76 86 6.0 10.0 0.00 0.00 0.00 61 1019.7
20200807212543 76 110 6.0 13.0 0.00 0.00 0.00 60 1019.8
20200807212039 76 102 7.0 13.0 0.00 0.00 0.00 58 1019.8
20200807211546 76 99 6.0 12.0 0.00 0.00 0.00 59 1019.8
20200807211037 77 106 6.0 10.0 0.00 0.00 0.00 60 1019.8
20200807210537 76 103 6.0 9.0 0.00 0.00 0.00 58 1019.7
20200807210035 77 85 6.0 9.0 0.00 0.00 0.00 59 1019.8
20200807205534 77 104 4.0 10.0 0.00 0.00 0.00 61 1019.9
20200807205032 77 62 4.0 10.0 0.00 0.00 0.00 61 1019.9
20200807204533 77 54 7.0 11.0 0.00 0.00 0.00 57 1020.0
20200807204034 76 106 4.0 11.0 0.00 0.00 0.00 60 1020.1
20200807203532 76 96 6.0 11.0 0.00 0.00 0.00 63 1020.1
20200807203033 76 92 5.0 11.0 0.00 0.00 0.00 64 1020.2
20200807202533 75 106 6.0 10.0 0.00 0.00 0.00 70 1020.1
20200807202033 75 90 6.0 10.0 0.00 0.00 0.00 69 1020.2
20200807201532 75 75 6.0 10.0 0.00 0.00 0.00 71 1020.2
20200807201032 75 124 5.0 11.0 0.00 0.00 0.00 70 1020.2
20200807200531 75 89 6.0 11.0 0.00 0.00 0.00 73 1020.3
20200807200033 75 82 5.0 10.0 0.00 0.00 0.00 73 1020.2
20200807195537 75 72 5.0 11.0 0.00 0.00 0.00 69 1020.3
20200807195031 75 106 6.0 12.0 0.00 0.00 0.00 70 1020.3
20200807194531 74 73 5.0 12.0 0.00 0.00 0.00 74 1020.3
20200807194032 74 128 7.0 11.0 0.00 0.00 0.00 75 1020.4
20200807193530 75 80 6.0 11.0 0.00 0.00 0.00 75 1020.5
20200807193032 74 103 6.0 12.0 0.00 0.00 0.00 73 1020.6
20200807192531 75 120 5.0 12.0 0.00 0.00 0.00 74 1020.6
20200807192031 75 83 5.0 12.0 0.00 0.00 0.00 73 1020.6
20200807191529 75 90 5.0 9.0 0.00 0.00 0.00 74 1020.6
20200807191041 75 54 4.0 7.0 0.00 0.00 0.00 72 1020.8
20200807190530 75 90 4.0 7.0 0.00 0.00 0.00 71 1020.8
20200807190028 75 47 4.0 9.0 0.00 0.00 0.00 73 1020.8
20200807185529 75 58 6.0 10.0 0.00 0.00 0.00 72 1020.6
20200807185031 75 85 3.0 10.0 0.00 0.00 0.00 74 1020.6
20200807184529 75 90 5.0 11.0 0.00 0.00 0.00 73 1020.6
20200807184030 75 93 5.0 11.0 0.00 0.00 0.00 71 1020.8
20200807183529 75 71 6.0 10.0 0.00 0.00 0.00 70 1020.8
20200807183028 75 89 5.0 10.0 0.00 0.00 0.00 71 1020.8
20200807182530 75 79 4.0 10.0 0.00 0.00 0.00 72 1020.8
20200807182028 75 56 4.0 9.0 0.00 0.00 0.00 73 1020.8
20200807181531 75 92 6.0 9.0 0.00 0.00 0.00 71 1020.9
20200807181027 75 56 5.0 9.0 0.00 0.00 0.00 70 1020.9
20200807180529 75 47 5.0 9.0 0.00 0.00 0.00 71 1020.9
20200807180027 76 69 4.0 7.0 0.00 0.00 0.00 70 1021.0
20200807175528 75 76 5.0 7.0 0.00 0.00 0.00 69 1021.0
20200807175025 75 55 6.0 7.0 0.00 0.00 0.00 69 1021.0
20200807174527 75 66 6.0 9.0 0.00 0.00 0.00 68 1021.0
20200807174027 75 68 6.0 9.0 0.00 0.00 0.00 68 1021.1
20200807173529 75 69 6.0 7.0 0.00 0.00 0.00 68 1021.0
20200807173028 75 41 6.0 7.0 0.00 0.00 0.00 69 1021.1
20200807172527 75 69 4.0 7.0 0.00 0.00 0.00 73 1021.1
20200807172026 74 56 6.0 7.0 0.00 0.00 0.00 71 1021.1
20200807171530 74 56 5.0 7.0 0.00 0.00 0.00 71 1021.2
20200807171033 75 52 5.0 6.0 0.00 0.00 0.00 71 1021.1
20200807170526 74 61 4.0 6.0 0.00 0.00 0.00 71 1021.2
20200807170026 74 52 5.0 6.0 0.00 0.00 0.00 69 1021.2
20200807165526 74 51 4.0 6.0 0.00 0.00 0.00 72 1021.2
20200807165028 74 58 5.0 6.0 0.00 0.00 0.00 70 1021.2
20200807164529 74 58 2.0 6.0 0.00 0.00 0.00 70 1021.2
20200807164026 74 62 3.0 6.0 0.00 0.00 0.00 69 1021.3
20200807163525 74 85 4.0 6.0 0.00 0.00 0.00 70 1021.3
20200807163025 74 45 3.0 6.0 0.00 0.00 0.00 70 1021.2
20200807162529 74 62 4.0 6.0 0.00 0.00 0.00 70 1021.2
20200807162026 74 78 4.0 6.0 0.00 0.00 0.00 70 1021.3
20200807161525 74 73 4.0 6.0 0.00 0.00 0.00 69 1021.3
20200807161024 74 75 4.0 6.0 0.00 0.00 0.00 71 1021.3
20200807160523 74 62 5.0 6.0 0.00 0.00 0.00 68 1021.3
20200807160025 74 63 4.0 6.0 0.00 0.00 0.00 68 1021.4
20200807155526 74 47 3.0 6.0 0.00 0.00 0.00 70 1021.4
20200807155029 74 68 3.0 6.0 0.00 0.00 0.00 68 1021.3
20200807154524 74 71 4.0 6.0 0.00 0.00 0.00 69 1021.3
20200807154023 75 83 2.0 5.0 0.00 0.00 0.00 66 1021.3
20200807153525 75 24 1.0 5.0 0.00 0.00 0.00 67 1021.3
20200807153023 75 80 2.0 5.0 0.00 0.00 0.00 67 1021.3
20200807152522 75 35 1.0 4.0 0.00 0.00 0.00 69 1021.3
20200807152022 75 19 1.0 5.0 0.00 0.00 0.00 67 1021.3
20200807151525 75 63 4.0 5.0 0.00 0.00 0.00 68 1021.2
20200807151025 75 55 1.0 5.0 0.00 0.00 0.00 68 1021.1
20200807150521 74 72 3.0 5.0 0.00 0.00 0.00 66 1021.1
20200807150024 74 86 2.0 5.0 0.00 0.00 0.00 66 1021.2
20200807145522 74 48 3.0 5.0 0.00 0.00 0.00 70 1021.1
20200807145022 74 80 3.0 5.0 0.00 0.00 0.00 68 1021.1
20200807144522 74 72 2.0 5.0 0.00 0.00 0.00 69 1021.0